Regional Weather Roundup
Issued by NWS

Home | Current Version | Previous Version | Graphics & Text | Print | Product List | Glossary On
Versions: 1 2 3 4 5 6 7 8 9 10 11 12 13 14 15 16 17 18 19 20 21 22 23 24 25 26 27 28 29 30 31 32 33 34 35 36 37 38 39 40 41 42 43 44 45 46 47 48 49 50
000
ASUS45 KTFX 221504
RWRMT
MONTANA HOURLY WEATHER ROUNDUP
NATIONAL WEATHER SERVICE GREAT FALLS MT
904 AM MDT TUE JUL 22 2014

NOTE: "FAIR" INDICATES FEW OR NO CLOUDS BELOW 12000 FEET WITH NO
SIGNIFICANT WEATHER AND/OR OBSTRUCTIONS TO VISIBILITY.

* THESE STATIONS ARE NOT UNDER NWS QUALITY CONTROL. THEY DO NOT
   REPORT WEATHER SUCH AS PRECIPITATION OR FOG.

MTZ001>007-043-221600-
WEST OF THE DIVIDE
CITY           SKY/WX    TMP DP  RH WIND       PRES   REMARKS
KALISPELL      CLOUDY    57  50  78 W3        30.15R
MISSOULA       CLOUDY    61  41  48 CALM      30.18R
BUTTE          PTSUNNY   61  50  67 CALM      30.30R
MULLAN PASS    CLOUDY    55  32  42 SE6       30.24R
* ESSEX        N/A       53  42  66 SE9G16     N/A
* LINCOLN      N/A       54  52  93 SE2        N/A
* LOOKOUT PASS N/A       52  44  74 SE2        N/A
* POLSON       N/A       60  52  75 NE1        N/A
* RONAN APT    CLOUDY    55  52  90 N/A        N/A
* SEELEY LAKE  N/A       51  43  74 N2         N/A
* THOMP F APT  CLOUDY    63  49  60 E2G7       N/A
* YAAK HILL    N/A       58  48  70 SW1        N/A
$$

MTZ008-052>055-221600-
SOUTHWEST MONTANA
CITY           SKY/WX    TMP DP  RH WIND       PRES   REMARKS
BOZEMAN        PTCLDY    68  52  57 NE5       30.25R
DILLON         PTCLDY    64  54  70 S6        30.28R
W YELLOWSTONE  SUNNY     54  50  86 CALM      30.41R
* THREE FORKS  PTSUNNY   64  64 100 N/A        N/A
* BOULDER HILL N/A       58  45  62 SW8        N/A
* MONIDA PASS  N/A       58  48  70 E8         N/A
* RAYNOLDS PAS N/A       58  40  51 SE10       N/A
* WHITEHALL    N/A       62  56  81 SW3        N/A
* WISE RIVER   N/A       55  51  86 NW2        N/A
$$

MTZ009>010-012-014-046-048-049-054-221600-
EAST SLOPES AND CENTRAL MONTANA
CITY           SKY/WX    TMP DP  RH WIND       PRES   REMARKS
CUT BANK       CLOUDY    55  52  90 CALM      30.19R
GREAT FALLS    CLOUDY    66  48  52 SW6       30.18R
HELENA         LGT RAIN  63  54  73 CALM      30.21R
MALMSTROM AFB  CLOUDY    64  52  65 NE2       30.19R
* CONRAD       CLOUDY    55  55 100 N/A        N/A
* DEARBORN     N/A       65  50  58 N/A        N/A
* EAST GLACIER N/A       56  44  64 NW1        N/A
* MONARCH      N/A       57  49  75 S11        N/A
* ROGERS PASS  N/A       58  44  60 NW5G10     N/A
* SAINT MARY   N/A       52  47  83 W3         N/A
* SWEET GRASS  N/A       62  50  65 S6         N/A
$$

MTZ011-013-016-021-035-040-045-047-050-051-221600-
NORTH CENTRAL MONTANA
CITY           SKY/WX    TMP DP  RH WIND       PRES   REMARKS
HAVRE          PTSUNNY   64  54  70 E15       30.16S
LEWISTOWN      CLOUDY    64  55  73 E3        30.23R
* CHESTER      N/A       62  52  70 E7G13      N/A
* DENTON       N/A       63  56  78 SE5        N/A
* GEYSER       N/A       62  55  78 SW4        N/A
* JUDITH GAP   N/A       60  55  84 N/A        N/A
* LOMA         N/A       67  54  63 NE8        N/A
$$

MTZ017>020-022>027-061-062-221600-
NORTHEAST MONTANA
CITY           SKY/WX    TMP DP  RH WIND       PRES   REMARKS
GLASGOW        PTCLDY    73  54  51 VRB6      30.16S
GLENDIVE       PTCLDY    73  61  66 S5        30.19R
JORDAN         PTCLDY    72  57  59 CALM      30.17R
SIDNEY         SUNNY     70  63  79 SE3       30.19R
WOLF POINT     SUNNY     72  55  55 N5        30.17S
* BEAVER HILL  N/A       72  60  66 S6         N/A
* CIRCLE       N/A       72  63  73 NE2        N/A
* LINDSAY DVD  N/A       73  62  69 S4         N/A
* NAVAJO       N/A       59  59 100 NE7        N/A
$$

MTZ028>042-056>058-221600-
SOUTHCENTRAL AND SOUTHEAST MONTANA
CITY           SKY/WX    TMP DP  RH WIND       PRES   REMARKS
BAKER          PTCLDY    77  59  54 SE7       30.20S
BILLINGS       PTCLDY    70  54  57 N5        30.19S
LIVINGSTON     SUNNY     70  52  53 CALM      30.24R
MILES CITY     PTCLDY    73  63  71 S3        30.17R
* LAUREL APT   PTCLDY    66  54  65 N/A        N/A
* ROUNDUP APT  PTSUNNY   64  55  73 N/A        N/A
* ALZADA       N/A       69  62  79 SE6        N/A
* HYSHAM       N/A       74  57  55 NE3        N/A
* LAME DEER    N/A       73  57  57 SE2        N/A
* REED POINT   N/A       68  53  59 W5         N/A
* ROSCOE HILL  N/A       65  49  56 NW2        N/A
$$

REGIONAL REPORTS...DAKOTAS
CITY           SKY/WX    TMP DP  RH WIND       PRES   REMARKS
WILLISTON      SUNNY     72  61  68 NE3       30.17R
DICKINSON      PTCLDY    66  63  90 E5        30.19R
CROSBY         N/A       66  66 100 E7        30.18S
TIOGA          SUNNY     66  66 100 S3        30.21R
WATFORD CITY   SUNNY     68  64  87 E3        30.16S
BISMARCK       PTSUNNY   68  63  84 N6        30.19R
GRAND FORKS    SUNNY     70  61  73 NW10      30.09R
FARGO          SUNNY     72  61  68 NW13      30.09R
BUFFALO SD     PTCLDY    72  61  68 SE7       30.15S
RAPID CITY     SUNNY     73  64  74 N7        30.22S
$$

REGIONAL REPORTS...WYOMING/IDAHO/WASHINGTON
CITY           SKY/WX    TMP DP  RH WIND       PRES   REMARKS
GILLETTE       PTCLDY    75  55  50 CALM      30.25R
SHERIDAN       PTSUNNY   63  57  81 SE3       30.21S
CODY           SUNNY     73  45  37 SW5       30.25R
YELLOWSTONE LA SUNNY     57  46  67 CALM      30.49R
SALMON         SUNNY     68  52  57 NW3       30.19S
MULLAN PASS    CLOUDY    55  32  42 SE6       30.24S
SAND POINT     LGT RAIN  57  54  90 CALM      30.12R
SPOKANE        LGT RAIN  61  48  62 SE7       30.09R

$$




USA.gov is the U.S. government's official web portal to all federal, state and local government web resources and services.